Stations météo

réclame
Mon MeteoGroup
La Roda de Andalucia, Espagne (8399): Température de l'air & dewpoint: 12.01.2019 13:00:00 - 18.01.2019 13:00:00 (CET)La Roda de Andalucia, Espagne (8399): Vitesse du vent & gusts: 12.01.2019 13:00:00 - 18.01.2019 13:00:00 (CET)La Roda de Andalucia, Espagne (8399): Direction du vent: 12.01.2019 13:00:00 - 18.01.2019 13:00:00 (CET)La Roda de Andalucia, Espagne (8399): reduced air pressure: 12.01.2019 13:00:00 - 18.01.2019 13:00:00 (CET)La Roda de Andalucia, Espagne (8399): visibility: 12.01.2019 13:00:00 - 18.01.2019 13:00:00 (CET)La Roda de Andalucia, Espagne (8399): Ensoleillement: 12.01.2019 13:00:00 - 18.01.2019 13:00:00 (CET)La Roda de Andalucia, Espagne (8399): Quantités de précipitations: 12.01.2019 13:00:00 - 18.01.2019 13:00:00 (CET)
Date & Time tt [°C] td [°C] ff [km/h] ff [knt] fx [km/h] fx [knt] dd ppp [hPa] vv [km] sd [min] rr [mm]
18.01.2019 13:00:00 - - - - - - - - - - -
18.01.2019 12:00:00 8,0 3,4 3 2 12 7 NW 1021,0 12 19 0,0
18.01.2019 11:00:00 6,4 4,6 7 4 11 6 S 1020,5 10 48 0,0
18.01.2019 10:00:00 3,8 2,9 6 3 13 7 S 1021,0 6 37 0,0
18.01.2019 09:00:00 1,1 0,2 9 5 11 6 S 1021,0 4,1 0 0,0
18.01.2019 08:00:00 0,1 -1,0 5 3 11 6 S 1020,8 2,7 0 0,0
18.01.2019 07:00:00 0,5 -0,5 9 5 12 6 S 1020,0 3,2 0 -
18.01.2019 06:00:00 0,1 -1,0 8 4 10 5 S 1020,1 2,6 0 0,0
18.01.2019 05:00:00 0,4 -1,0 5 3 7 4 S 1020,1 2,2 0 0,0
18.01.2019 04:00:00 0,8 -0,7 4 2 7 4 S 1020,4 3,1 0 0,0
18.01.2019 03:00:00 2,1 0,4 5 3 8 5 S 1019,8 2,7 0 0,0
18.01.2019 02:00:00 3,8 1,5 4 2 6 3 SSW 1019,5 3,1 0 0,0
18.01.2019 01:00:00 5,9 3,6 3 1 5 3 S 1019,8 7 0 -
18.01.2019 00:00:00 6,0 3,4 3 2 4 2 S 1019,8 9 0 0,0
17.01.2019 23:00:00 5,7 3,0 2 1 6 3 SSW 1019,6 9 0 0,0
17.01.2019 22:00:00 6,9 2,9 2 1 9 5 NNW 1018,9 8 0 0,0
17.01.2019 21:00:00 8,5 3,8 6 3 15 8 N 1018,3 15 0 0,0
17.01.2019 20:00:00 9,6 3,9 9 5 16 8 NNW 1017,8 15 0 0,0
17.01.2019 19:00:00 9,6 3,9 5 3 14 8 N 1017,3 15 0 -
17.01.2019 18:00:00 10,3 3,9 10 6 16 9 N 1016,6 16 16 0,0
17.01.2019 17:00:00 11,3 3,8 9 5 19 11 NNW 1016,4 20 20 0,0
17.01.2019 16:00:00 11,1 3,2 12 7 24 13 N 1016,4 20 0 0,0
17.01.2019 15:00:00 11,8 3,0 10 6 22 12 N 1016,4 20 0 0,0
17.01.2019 14:00:00 11,7 4,1 13 7 24 13 N 1016,9 20 4 0,0
17.01.2019 13:00:00 12,2 3,6 8 5 15 8 N 1017,8 20 21 -
17.01.2019 12:00:00 12,2 4,6 6 3 13 7 N 1018,3 19 59 0,0
17.01.2019 11:00:00 10,1 4,5 2 1 4 2 NNW 1018,6 16 60 0,0
17.01.2019 10:00:00 6,3 4,5 2 1 4 2 S 1018,8 6 1 0,0
17.01.2019 09:00:00 5,5 3,6 4 2 5 3 S 1018,4 3,8 0 0,0
17.01.2019 08:00:00 6,1 3,9 1 1 5 3 S 1018,0 5 0 0,0
17.01.2019 07:00:00 6,2 3,9 3 1 10 5 S 1017,6 8 0 -
17.01.2019 06:00:00 5,9 3,8 5 3 8 4 S 1017,5 9 0 0,0
17.01.2019 05:00:00 5,9 3,2 5 3 9 5 SSW 1017,6 8 0 0,0
17.01.2019 04:00:00 6,2 3,6 7 4 9 5 S 1018,1 12 0 0,0
17.01.2019 03:00:00 6,0 3,6 4 2 11 6 WSW 1018,3 7 0 0,0
17.01.2019 02:00:00 5,8 3,8 6 3 12 6 S 1018,7 8 0 0,0
17.01.2019 01:00:00 5,9 3,4 7 4 8 5 S 1019,2 7 0 -
17.01.2019 00:00:00 6,8 3,9 3 2 9 5 SSW 1019,3 8 0 0,0
16.01.2019 23:00:00 5,5 3,6 6 3 8 4 S 1019,5 10 0 0,0
16.01.2019 22:00:00 4,8 3,0 7 4 10 5 S 1019,6 9 0 0,0
16.01.2019 21:00:00 4,3 2,1 5 3 9 5 S 1019,6 8 0 0,0
16.01.2019 20:00:00 5,3 1,9 6 4 8 5 S 1019,1 11 0 0,0
16.01.2019 19:00:00 8,9 2,5 2 1 12 6 SSW 1018,2 19 0 -
16.01.2019 18:00:00 12,0 3,4 8 5 16 9 N 1017,4 20 58 0,0
16.01.2019 17:00:00 13,3 2,9 7 4 16 8 NNW 1017,3 20 43 0,0
16.01.2019 16:00:00 13,7 3,2 7 4 17 9 NNW 1017,5 20 10 0,0
16.01.2019 15:00:00 14,4 2,9 6 3 17 9 W 1017,6 20 16 0,0
16.01.2019 14:00:00 13,7 2,3 9 5 18 10 NW 1018,4 20 42 0,0
16.01.2019 13:00:00 13,4 3,2 6 3 13 7 WNW 1019,3 20 52 -
16.01.2019 12:00:00 12,3 5,3 3 1 8 4 W 1020,4 20 42 0,0
16.01.2019 11:00:00 9,8 6,4 4 2 10 5 S 1020,9 12 3 0,0
16.01.2019 10:00:00 6,9 4,8 7 4 14 8 S 1021,0 8 0 0,0
16.01.2019 09:00:00 6,1 4,3 7 4 14 7 S 1020,9 4,7 0 0,0
16.01.2019 08:00:00 6,3 4,5 7 4 12 6 S 1020,7 7 0 0,0
16.01.2019 07:00:00 6,3 4,3 4 2 13 7 SW 1020,5 7 0 -
16.01.2019 06:00:00 6,0 4,3 9 5 14 7 S 1020,5 7 0 0,0
16.01.2019 05:00:00 6,1 4,8 7 4 9 5 S 1020,9 7 0 0,0
16.01.2019 04:00:00 5,5 4,1 6 4 8 5 S 1021,4 4,2 0 0,0
16.01.2019 03:00:00 5,5 4,1 2 1 9 5 S 1021,6 7 0 0,0
16.01.2019 02:00:00 5,8 4,6 5 3 9 5 S 1021,6 6 0 0,0
16.01.2019 01:00:00 4,8 3,6 4 2 8 5 S 1022,4 3,7 0 -
16.01.2019 00:00:00 4,4 3,2 4 2 9 5 S 1022,6 7 0 0,0
15.01.2019 23:00:00 3,8 2,5 6 3 9 5 S 1022,5 4,1 0 0,0
15.01.2019 22:00:00 4,2 2,7 8 5 10 5 S 1022,2 6 0 0,0
15.01.2019 21:00:00 4,3 2,3 4 2 8 5 SSW 1021,9 7 0 0,0
15.01.2019 20:00:00 5,0 2,3 7 4 9 5 S 1021,6 10 0 0,0
15.01.2019 19:00:00 7,1 3,0 7 4 9 5 S 1020,9 19 0 -
15.01.2019 18:00:00 11,0 4,3 3 2 10 6 NW 1019,8 20 0 0,0
15.01.2019 17:00:00 13,9 5,3 6 3 16 8 SW 1019,3 20 49 0,0
15.01.2019 16:00:00 15,1 5,6 10 5 18 10 SW 1018,8 20 56 0,0
15.01.2019 15:00:00 14,9 5,5 7 4 16 9 W 1018,9 20 60 0,0
15.01.2019 14:00:00 12,9 1,5 6 3 13 7 S 1019,9 20 27 0,0
15.01.2019 13:00:00 11,3 1,5 6 3 13 7 S 1021,0 20 10 -
15.01.2019 12:00:00 9,8 1,7 8 4 15 8 S 1021,9 20 33 0,0
15.01.2019 11:00:00 7,4 1,5 6 3 12 6 S 1022,3 20 3 0,0
15.01.2019 10:00:00 4,7 0,9 5 3 10 6 S 1022,0 18 0 0,0
15.01.2019 09:00:00 3,5 0,6 8 4 12 6 S 1021,6 14 0 0,0
15.01.2019 08:00:00 3,0 0,6 10 5 12 6 S 1021,4 18 0 0,0
15.01.2019 07:00:00 2,0 -0,5 5 3 7 4 S 1021,0 12 0 -
15.01.2019 06:00:00 2,4 -0,5 4 2 11 6 SSW 1020,8 13 0 0,0
15.01.2019 05:00:00 3,0 0,2 9 5 11 6 S 1021,1 17 0 0,0
15.01.2019 04:00:00 2,0 -0,5 9 5 9 5 S 1021,8 14 0 0,0
15.01.2019 03:00:00 2,6 -0,3 4 2 10 5 S 1021,9 15 0 0,0
15.01.2019 02:00:00 2,5 -0,5 5 3 9 5 S 1022,0 19 0 0,0
15.01.2019 01:00:00 3,7 0,0 3 1 10 5 SSW 1021,7 20 0 -
15.01.2019 00:00:00 2,5 -1,0 7 4 10 6 S 1022,5 20 0 0,0
14.01.2019 23:00:00 2,9 -1,2 6 3 10 5 S 1022,5 20 0 0,0
14.01.2019 22:00:00 4,3 -0,7 8 5 10 5 S 1022,2 20 0 0,0
14.01.2019 21:00:00 7,1 -0,3 4 2 11 6 SW 1021,6 20 0 0,0
14.01.2019 20:00:00 6,7 -0,3 5 3 9 5 WSW 1021,4 20 0 0,0
14.01.2019 19:00:00 8,7 -0,3 6 3 14 7 S 1021,1 20 2 -
14.01.2019 18:00:00 13,8 -1,4 7 4 19 10 NNW 1020,1 20 60 0,0
14.01.2019 17:00:00 15,6 -1,4 11 6 20 11 WNW 1019,8 20 60 0,0
14.01.2019 16:00:00 16,4 -0,7 8 4 19 10 NW 1019,7 20 60 0,0
14.01.2019 15:00:00 16,2 -1,0 13 7 18 10 N 1020,1 20 60 0,0
14.01.2019 14:00:00 15,3 -1,7 10 5 16 9 N 1021,0 20 60 0,0
14.01.2019 13:00:00 - - - - - - - - - - -
14.01.2019 12:00:00 12,2 -2,2 6 3 9 5 N 1023,5 20 60 0,0
14.01.2019 11:00:00 8,0 0,2 2 1 6 4 N 1024,4 13 60 0,0
14.01.2019 10:00:00 3,7 -1,0 7 4 12 7 S 1024,9 20 57 0,0
14.01.2019 09:00:00 0,6 -2,0 10 5 13 7 S 1025,4 20 0 0,0
14.01.2019 08:00:00 -1,3 -3,3 5 3 11 6 S 1025,8 13 0 0,0
14.01.2019 07:00:00 -1,1 -3,0 6 3 8 5 S 1025,7 12 0 -
14.01.2019 06:00:00 -0,4 -2,5 4 2 14 8 S 1025,7 15 0 0,0
14.01.2019 05:00:00 -0,1 -3,3 3 2 12 6 S 1026,1 16 0 0,0
14.01.2019 04:00:00 0,6 -2,7 10 5 12 6 S 1026,3 20 0 0,0
14.01.2019 03:00:00 1,7 -2,2 7 4 14 8 S 1026,3 20 0 0,0
14.01.2019 02:00:00 1,3 -1,7 11 6 16 9 S 1026,5 20 0 0,0
14.01.2019 01:00:00 0,9 -2,5 5 3 8 5 SSE 1026,8 20 0 -
14.01.2019 00:00:00 1,8 -2,7 5 3 12 7 S 1027,2 20 0 0,0
13.01.2019 23:00:00 2,2 -2,2 10 5 12 6 S 1027,1 20 0 0,0
13.01.2019 22:00:00 1,8 -2,5 9 5 12 6 S 1027,2 20 0 0,0
13.01.2019 21:00:00 2,5 -2,5 8 4 10 5 S 1027,0 20 0 0,0
13.01.2019 20:00:00 4,0 -2,2 8 4 9 5 S 1026,9 20 0 0,0
13.01.2019 19:00:00 7,7 -1,7 6 4 10 5 S 1026,0 20 2 -
13.01.2019 18:00:00 13,1 -3,3 6 3 15 8 NNE 1024,8 20 56 0,0
13.01.2019 17:00:00 14,9 -4,5 11 6 19 10 N 1024,3 20 60 0,0
13.01.2019 16:00:00 15,7 -6,0 8 4 13 7 N 1024,3 20 60 0,0
13.01.2019 15:00:00 15,5 -4,5 5 3 11 6 N 1024,8 20 60 0,0
13.01.2019 14:00:00 14,9 -1,2 4 2 9 5 NNW 1025,8 20 60 0,0
13.01.2019 13:00:00 13,2 -1,4 5 3 9 5 NNE 1026,9 20 60 -
13.01.2019 12:00:00 10,7 0,4 3 2 6 4 NNE 1028,5 20 60 0,0
13.01.2019 11:00:00 7,3 0,9 4 2 14 8 SSW 1029,0 20 60 0,0
13.01.2019 10:00:00 2,7 1,3 6 3 16 9 SSW 1029,3 20 57 0,0
13.01.2019 09:00:00 -1,4 -2,5 8 5 10 6 S 1029,8 10 0 0,0
13.01.2019 08:00:00 0,0 -1,2 2 1 9 5 SE 1029,4 8 0 0,0
13.01.2019 07:00:00 0,7 -0,5 7 4 14 8 S 1029,0 17 0 -
13.01.2019 06:00:00 0,8 -0,3 9 5 14 7 S 1028,9 16 0 0,0
13.01.2019 05:00:00 0,2 -1,2 5 3 11 6 S 1029,4 6 0 0,0
13.01.2019 04:00:00 1,7 0,2 6 3 14 8 S 1029,3 6 0 0,0
13.01.2019 03:00:00 2,5 0,6 7 4 15 8 S 1029,1 14 0 0,0
13.01.2019 02:00:00 3,9 1,7 10 5 19 11 S 1028,8 20 0 0,0
13.01.2019 01:00:00 3,9 1,7 9 5 17 9 S 1029,3 20 0 -
13.01.2019 00:00:00 4,4 1,3 13 7 17 9 S 1029,4 20 0 0,0
12.01.2019 23:00:00 4,2 0,9 9 5 13 7 S 1029,5 20 0 0,0
12.01.2019 22:00:00 4,0 -1,2 7 4 10 5 S 1029,3 20 0 0,0
12.01.2019 21:00:00 4,9 -1,4 6 4 9 5 S 1028,8 20 0 0,0
12.01.2019 20:00:00 5,7 -2,0 6 3 10 6 S 1028,6 20 0 0,0
12.01.2019 19:00:00 7,5 -0,7 3 1 12 6 S 1027,8 20 1 -
12.01.2019 18:00:00 11,4 0,4 9 5 22 12 S 1026,6 20 50 0,0
12.01.2019 17:00:00 13,3 -0,5 13 7 24 13 S 1025,7 20 60 0,0
12.01.2019 16:00:00 13,9 -0,3 15 8 30 16 S 1025,6 20 60 0,0
12.01.2019 15:00:00 14,0 0,2 14 7 26 14 S 1025,8 20 60 0,0
12.01.2019 14:00:00 14,3 0,9 8 4 17 9 SSE 1026,1 20 60 0,0
12.01.2019 13:00:00 13,2 1,5 9 5 18 10 SSE 1027,0 20 60 -

tt = Température de l'air
td = dewpoint
ff = Vitesse du vent
fx = gusts
dd = Direction du vent
ppp = reduced air pressure
vv = visibility
sd = Ensoleillement
rr = Quantités de précipitations

stations d'obs. à proximité